| time (UTC) | temp F | wind direction | speed knots | gust knots | rain 1hr in | rain 24hr in | rain mn in | humidity % | barometer mb |
| 20260506212054 | 57 | 36 | 5.2 | 13.0 | 0.03 | 0.09 | 0.09 | 98 | 1007.8 |
| 20260506211551 | 57 | 21 | 5.2 | 13.0 | 0.03 | 0.09 | 0.09 | 98 | 1007.7 |
| 20260506211050 | 57 | 73 | 3.5 | 10.4 | 0.03 | 0.09 | 0.09 | 98 | 1007.9 |
| 20260506210550 | 57 | 61 | 6.1 | 9.6 | 0.03 | 0.09 | 0.09 | 98 | 1007.8 |
| 20260506210050 | 57 | 95 | 2.6 | 8.7 | 0.03 | 0.09 | 0.09 | 98 | 1007.9 |
| 20260506205550 | 57 | 49 | 2.6 | 13.9 | 0.02 | 0.08 | 0.08 | 97 | 1008.0 |
| 20260506205049 | 57 | 105 | 3.5 | 13.9 | 0.01 | 0.07 | 0.07 | 97 | 1008.0 |
| 20260506204548 | 57 | 76 | 3.5 | 8.7 | 0.01 | 0.07 | 0.07 | 97 | 1008.0 |
| 20260506204048 | 57 | 74 | 4.3 | 12.2 | 0.00 | 0.06 | 0.06 | 97 | 1008.0 |
| 20260506203548 | 57 | 81 | 3.5 | 12.2 | 0.00 | 0.06 | 0.06 | 97 | 1008.2 |
| 20260506203050 | 57 | 65 | 4.3 | 12.2 | 0.00 | 0.06 | 0.06 | 97 | 1008.1 |
| 20260506202551 | 57 | 59 | 5.2 | 11.3 | 0.00 | 0.06 | 0.06 | 97 | 1008.1 |
| 20260506202048 | 57 | 88 | 2.6 | 11.3 | 0.00 | 0.06 | 0.06 | 97 | 1008.1 |
| 20260506201547 | 57 | 49 | 2.6 | 11.3 | 0.00 | 0.06 | 0.06 | 97 | 1008.0 |
| 20260506201050 | 57 | 67 | 4.3 | 11.3 | 0.00 | 0.06 | 0.06 | 97 | 1008.0 |
| 20260506200546 | 57 | 115 | 5.2 | 11.3 | 0.00 | 0.06 | 0.06 | 97 | 1008.1 |
| 20260506200118 | 57 | 82 | 3.5 | 10.4 | 0.00 | 0.06 | 0.06 | 97 | 1008.2 |
| 20260506195546 | 57 | 76 | 4.3 | 10.4 | 0.01 | 0.06 | 0.06 | 97 | 1008.1 |
| 20260506195048 | 57 | 113 | 3.5 | 11.3 | 0.01 | 0.06 | 0.06 | 97 | 1008.3 |
| 20260506194544 | 57 | 82 | 3.5 | 11.3 | 0.02 | 0.06 | 0.06 | 97 | 1008.3 |
| 20260506194043 | 57 | 55 | 1.7 | 16.5 | 0.02 | 0.06 | 0.06 | 97 | 1008.3 |
| 20260506193546 | 57 | 61 | 3.5 | 16.5 | 0.03 | 0.06 | 0.06 | 97 | 1008.5 |
| 20260506193045 | 57 | 100 | 6.1 | 13.0 | 0.03 | 0.06 | 0.06 | 97 | 1008.5 |
| 20260506192543 | 57 | 95 | 7.0 | 13.0 | 0.04 | 0.06 | 0.06 | 97 | 1008.6 |
| 20260506192042 | 57 | 95 | 5.2 | 13.9 | 0.04 | 0.06 | 0.06 | 97 | 1008.6 |
| 20260506191546 | 57 | 105 | 5.2 | 16.5 | 0.04 | 0.06 | 0.06 | 97 | 1008.7 |
| 20260506191041 | 57 | 126 | 7.8 | 16.5 | 0.05 | 0.06 | 0.06 | 96 | 1008.7 |
| 20260506190541 | 57 | 100 | 2.6 | 12.2 | 0.05 | 0.06 | 0.06 | 97 | 1008.6 |
| 20260506190042 | 57 | 88 | 4.3 | 13.9 | 0.05 | 0.06 | 0.06 | 96 | 1008.5 |
| 20260506185546 | 57 | 57 | 7.8 | 13.9 | 0.04 | 0.05 | 0.05 | 96 | 1008.6 |
| 20260506185044 | 57 | 70 | 4.3 | 13.0 | 0.05 | 0.05 | 0.05 | 96 | 1008.9 |
| 20260506184539 | 57 | 86 | 6.1 | 12.2 | 0.04 | 0.04 | 0.04 | 96 | 1009.0 |
| 20260506184139 | 57 | 64 | 7.0 | 15.6 | 0.04 | 0.04 | 0.04 | 95 | 1008.8 |
| 20260506183538 | 57 | 55 | 7.0 | 15.6 | 0.03 | 0.03 | 0.03 | 95 | 1008.6 |
| 20260506183038 | 57 | 76 | 1.7 | 7.8 | 0.03 | 0.03 | 0.03 | 95 | 1008.7 |
| 20260506182537 | 57 | 67 | 1.7 | 8.7 | 0.02 | 0.02 | 0.02 | 94 | 1008.8 |
| 20260506182037 | 58 | 59 | 3.5 | 9.6 | 0.02 | 0.02 | 0.02 | 94 | 1009.0 |
| 20260506181538 | 58 | 327 | 3.5 | 12.2 | 0.02 | 0.02 | 0.02 | 93 | 1009.0 |
| 20260506181035 | 58 | 45 | 3.5 | 12.2 | 0.01 | 0.01 | 0.01 | 93 | 1009.0 |
| 20260506180535 | 58 | 67 | 4.3 | 14.8 | 0.01 | 0.01 | 0.01 | 92 | 1009.2 |
| 20260506180045 | 58 | 82 | 3.5 | 14.8 | 0.01 | 0.01 | 0.01 | 92 | 1009.3 |
| 20260506175535 | 59 | 63 | 3.5 | 13.9 | 0.01 | 0.01 | 0.01 | 91 | 1009.7 |
| 20260506175033 | 59 | 100 | 6.1 | 13.9 | 0.00 | 0.00 | 0.00 | 89 | 1009.7 |
| 20260506174532 | 60 | 82 | 6.1 | 11.3 | 0.00 | 0.00 | 0.00 | 88 | 1009.7 |
| 20260506174032 | 60 | 100 | 3.5 | 11.3 | 0.00 | 0.00 | 0.00 | 87 | 1009.7 |
| 20260506173533 | 60 | 123 | 6.1 | 11.3 | 0.00 | 0.00 | 0.00 | 87 | 1009.8 |
| 20260506173032 | 61 | 84 | 3.5 | 10.4 | 0.00 | 0.00 | 0.00 | 86 | 1009.8 |
| 20260506172530 | 61 | 95 | 3.5 | 13.0 | 0.00 | 0.00 | 0.00 | 85 | 1009.8 |
| 20260506172034 | 61 | 91 | 6.1 | 16.5 | 0.00 | 0.00 | 0.00 | 83 | 1010.0 |
| 20260506171545 | 62 | 105 | 7.8 | 16.5 | 0.00 | 0.00 | 0.00 | 82 | 1010.0 |
| 20260506171030 | 62 | 46 | 3.5 | 9.6 | 0.00 | 0.00 | 0.00 | 83 | 1010.0 |
| 20260506170530 | 62 | 82 | 5.2 | 15.6 | 0.00 | 0.00 | 0.00 | 82 | 1009.9 |
| 20260506170029 | 62 | 63 | 6.1 | 16.5 | 0.00 | 0.00 | 0.00 | 82 | 1010.0 |
| 20260506165529 | 63 | 100 | 7.0 | 13.9 | 0.00 | 0.00 | 0.00 | 82 | 1009.9 |
| 20260506165032 | 63 | 38 | 8.7 | 17.4 | 0.00 | 0.00 | 0.00 | 81 | 1010.0 |
| 20260506164528 | 63 | 74 | 10.4 | 18.2 | 0.00 | 0.00 | 0.00 | 81 | 1010.0 |
| 20260506164027 | 63 | 51 | 8.7 | 18.2 | 0.00 | 0.00 | 0.00 | 80 | 1010.1 |
| 20260506163527 | 64 | 39 | 3.5 | 15.6 | 0.00 | 0.00 | 0.00 | 81 | 1010.2 |
| 20260506163031 | 63 | 86 | 7.8 | 15.6 | 0.00 | 0.00 | 0.00 | 81 | 1010.1 |
| 20260506162526 | 64 | 13 | 6.1 | 14.8 | 0.00 | 0.00 | 0.00 | 80 | 1010.1 |
| 20260506162027 | 63 | 95 | 4.3 | 14.8 | 0.00 | 0.00 | 0.00 | 81 | 1010.1 |
| 20260506161536 | 63 | 113 | 5.2 | 16.5 | 0.00 | 0.00 | 0.00 | 80 | 1010.1 |
| 20260506161026 | 64 | 57 | 6.1 | 16.5 | 0.00 | 0.00 | 0.00 | 79 | 1010.4 |
| 20260506160529 | 64 | 69 | 5.2 | 12.2 | 0.00 | 0.00 | 0.00 | 80 | 1010.4 |
| 20260506160026 | 64 | 95 | 5.2 | 12.2 | 0.00 | 0.00 | 0.00 | 79 | 1010.4 |
| 20260506155526 | 64 | 61 | 5.2 | 14.8 | 0.00 | 0.00 | 0.00 | 78 | 1010.6 |
| 20260506155026 | 65 | 26 | 5.2 | 14.8 | 0.00 | 0.00 | 0.00 | 78 | 1010.5 |
| 20260506154525 | 65 | 50 | 4.3 | 13.0 | 0.00 | 0.00 | 0.00 | 78 | 1010.4 |
| 20260506154025 | 66 | 55 | 4.3 | 13.0 | 0.00 | 0.00 | 0.00 | 77 | 1010.4 |
| 20260506153526 | 66 | 109 | 6.1 | 13.9 | 0.00 | 0.00 | 0.00 | 76 | 1010.3 |
| 20260506153024 | 66 | 84 | 5.2 | 16.5 | 0.00 | 0.00 | 0.00 | 77 | 1010.3 |
| 20260506152525 | 66 | 76 | 9.6 | 20.0 | 0.00 | 0.00 | 0.00 | 76 | 1010.3 |
| 20260506152024 | 66 | 74 | 9.6 | 20.0 | 0.00 | 0.00 | 0.00 | 75 | 1010.4 |
| 20260506151526 | 66 | 146 | 6.1 | 16.5 | 0.00 | 0.00 | 0.00 | 77 | 1010.3 |
| 20260506151023 | 66 | 95 | 10.4 | 16.5 | 0.00 | 0.00 | 0.00 | 76 | 1010.2 |
| 20260506150524 | 66 | 67 | 6.1 | 14.8 | 0.00 | 0.00 | 0.00 | 76 | 1010.5 |
| 20260506150026 | 66 | 63 | 7.0 | 12.2 | 0.00 | 0.00 | 0.00 | 75 | 1010.4 |
| 20260506145525 | 67 | 75 | 5.2 | 13.0 | 0.00 | 0.00 | 0.00 | 75 | 1010.6 |
| 20260506145022 | 67 | 69 | 6.1 | 18.2 | 0.00 | 0.00 | 0.00 | 76 | 1010.5 |
| 20260506144521 | 67 | 51 | 10.4 | 18.2 | 0.00 | 0.00 | 0.00 | 75 | 1010.4 |
| 20260506144020 | 66 | 13 | 6.1 | 16.5 | 0.00 | 0.00 | 0.00 | 76 | 1010.4 |
| 20260506143520 | 66 | 73 | 7.8 | 17.4 | 0.00 | 0.00 | 0.00 | 75 | 1010.5 |
| 20260506143019 | 66 | 49 | 5.2 | 18.2 | 0.00 | 0.00 | 0.00 | 76 | 1010.5 |
| 20260506142517 | 66 | 48 | 7.0 | 21.7 | 0.00 | 0.00 | 0.00 | 76 | 1010.7 |
| 20260506142017 | 66 | 88 | 7.8 | 18.2 | 0.00 | 0.00 | 0.00 | 79 | 1010.9 |
| 20260506141516 | 66 | 85 | 7.0 | 15.6 | 0.00 | 0.00 | 0.00 | 79 | 1010.9 |
| 20260506141015 | 65 | 112 | 6.1 | 13.9 | 0.00 | 0.00 | 0.00 | 78 | 1010.8 |
| 20260506140514 | 65 | 51 | 7.0 | 13.9 | 0.00 | 0.00 | 0.00 | 78 | 1010.8 |
| 20260506140013 | 65 | 86 | 8.7 | 13.9 | 0.00 | 0.00 | 0.00 | 79 | 1010.6 |
| 20260506135513 | 65 | 71 | 7.0 | 13.9 | 0.00 | 0.00 | 0.00 | 78 | 1010.7 |
| 20260506135020 | 65 | 70 | 5.2 | 13.9 | 0.00 | 0.00 | 0.00 | 79 | 1010.7 |
| 20260506134521 | 64 | 78 | 7.0 | 13.9 | 0.00 | 0.00 | 0.00 | 79 | 1010.5 |
| 20260506134010 | 64 | 95 | 6.1 | 12.2 | 0.00 | 0.00 | 0.00 | 80 | 1010.6 |
| 20260506133511 | 64 | 11 | 6.1 | 14.8 | 0.00 | 0.00 | 0.00 | 79 | 1010.5 |
| 20260506133008 | 64 | 77 | 5.2 | 16.5 | 0.00 | 0.00 | 0.00 | 81 | 1010.7 |
| 20260506132507 | 64 | 71 | 2.6 | 16.5 | 0.00 | 0.00 | 0.00 | 82 | 1010.6 |
| 20260506132007 | 63 | 80 | 6.1 | 15.6 | 0.00 | 0.00 | 0.00 | 81 | 1010.5 |
| 20260506131505 | 63 | 34 | 6.1 | 15.6 | 0.00 | 0.00 | 0.00 | 82 | 1010.5 |
| 20260506131005 | 63 | 59 | 5.2 | 15.6 | 0.00 | 0.00 | 0.00 | 82 | 1010.8 |
| 20260506130504 | 63 | 45 | 7.0 | 15.6 | 0.00 | 0.00 | 0.00 | 82 | 1010.7 |
| 20260506130005 | 63 | 63 | 6.1 | 16.5 | 0.00 | 0.00 | 0.00 | 83 | 1010.7 |
| 20260506125503 | 63 | 82 | 6.1 | 13.0 | 0.00 | 0.00 | 0.00 | 82 | 1011.0 |
| 20260506125101 | 63 | 105 | 7.0 | 13.9 | 0.00 | 0.00 | 0.00 | 83 | 1011.1 |
| 20260506124609 | 63 | 100 | 7.0 | 14.8 | 0.00 | 0.00 | 0.00 | 84 | 1011.1 |
| 20260506124058 | 62 | 95 | 6.1 | 14.8 | 0.00 | 0.00 | 0.00 | 86 | 1011.2 |
| 20260506123557 | 62 | 36 | 6.1 | 13.9 | 0.00 | 0.00 | 0.00 | 85 | 1011.1 |
| 20260506123056 | 61 | 110 | 9.6 | 13.9 | 0.00 | 0.00 | 0.00 | 87 | 1011.0 |
| 20260506122553 | 60 | 51 | 6.1 | 13.0 | 0.00 | 0.00 | 0.00 | 89 | 1011.1 |
| 20260506122053 | 59 | 78 | 6.1 | 10.4 | 0.00 | 0.00 | 0.00 | 88 | 1011.1 |
| 20260506121601 | 59 | 86 | 4.3 | 10.4 | 0.00 | 0.00 | 0.00 | 89 | 1011.1 |
| 20260506121051 | 59 | 75 | 4.3 | 10.4 | 0.00 | 0.00 | 0.00 | 89 | 1011.1 |
| 20260506120551 | 59 | 78 | 5.2 | 10.4 | 0.00 | 0.00 | 0.00 | 89 | 1011.2 |
| 20260506120051 | 59 | 43 | 2.6 | 10.4 | 0.00 | 0.00 | 0.00 | 89 | 1011.1 |
| 20260506115551 | 59 | 62 | 2.6 | 10.4 | 0.00 | 0.00 | 0.00 | 90 | 1011.1 |
| 20260506115049 | 58 | 61 | 3.5 | 13.0 | 0.00 | 0.00 | 0.00 | 90 | 1010.9 |
| 20260506114553 | 58 | 67 | 6.1 | 13.0 | 0.00 | 0.00 | 0.00 | 90 | 1011.0 |
| 20260506114048 | 58 | 51 | 4.3 | 13.9 | 0.00 | 0.00 | 0.00 | 91 | 1010.9 |
| 20260506113548 | 58 | 75 | 4.3 | 13.9 | 0.00 | 0.00 | 0.00 | 91 | 1010.9 |
| 20260506113047 | 58 | 91 | 4.3 | 10.4 | 0.00 | 0.00 | 0.00 | 91 | 1011.2 |
| 20260506112547 | 58 | 70 | 3.5 | 10.4 | 0.00 | 0.00 | 0.00 | 92 | 1011.2 |
| 20260506112045 | 57 | 60 | 7.0 | 10.4 | 0.00 | 0.00 | 0.00 | 91 | 1011.3 |
| 20260506111554 | 57 | 95 | 4.3 | 13.0 | 0.00 | 0.00 | 0.00 | 92 | 1011.2 |
| 20260506111044 | 57 | 49 | 6.1 | 13.0 | 0.00 | 0.00 | 0.00 | 92 | 1011.2 |
| 20260506110546 | 57 | 60 | 5.2 | 10.4 | 0.00 | 0.00 | 0.00 | 93 | 1011.0 |
| 20260506110043 | 57 | 95 | 5.2 | 10.4 | 0.00 | 0.00 | 0.00 | 93 | 1011.2 |
| 20260506105544 | 56 | 73 | 3.5 | 12.2 | 0.00 | 0.00 | 0.00 | 93 | 1011.2 |
| 20260506105042 | 56 | 95 | 2.6 | 12.2 | 0.00 | 0.00 | 0.00 | 93 | 1011.2 |
| 20260506104542 | 56 | 84 | 3.5 | 10.4 | 0.00 | 0.00 | 0.00 | 93 | 1011.2 |
| 20260506104040 | 56 | 52 | 4.3 | 10.4 | 0.00 | 0.00 | 0.00 | 94 | 1011.2 |
| 20260506103540 | 56 | 87 | 4.3 | 9.6 | 0.00 | 0.00 | 0.00 | 94 | 1011.0 |
| 20260506103039 | 56 | 57 | 3.5 | 11.3 | 0.00 | 0.00 | 0.00 | 94 | 1011.1 |
| 20260506102538 | 56 | 86 | 6.1 | 12.2 | 0.00 | 0.00 | 0.00 | 94 | 1011.1 |
| 20260506102039 | 56 | 70 | 5.2 | 12.2 | 0.00 | 0.00 | 0.00 | 93 | 1011.0 |
| 20260506101537 | 56 | 71 | 5.2 | 12.2 | 0.00 | 0.00 | 0.00 | 93 | 1011.1 |
| 20260506101036 | 56 | 51 | 6.1 | 10.4 | 0.00 | 0.00 | 0.00 | 93 | 1011.0 |
| 20260506100536 | 56 | 69 | 2.6 | 12.2 | 0.00 | 0.00 | 0.00 | 93 | 1011.0 |
| 20260506100036 | 56 | 95 | 3.5 | 12.2 | 0.00 | 0.00 | 0.00 | 93 | 1011.0 |
| 20260506095536 | 56 | 82 | 2.6 | 8.7 | 0.00 | 0.00 | 0.00 | 93 | 1011.0 |
| 20260506095037 | 56 | 83 | 2.6 | 10.4 | 0.00 | 0.00 | 0.00 | 93 | 1011.0 |
| 20260506094533 | 56 | 82 | 2.6 | 11.3 | 0.00 | 0.00 | 0.00 | 92 | 1010.9 |
| 20260506094034 | 56 | 40 | 6.1 | 10.4 | 0.00 | 0.00 | 0.00 | 92 | 1011.0 |
| 20260506093531 | 56 | 64 | 5.2 | 11.3 | 0.00 | 0.00 | 0.00 | 92 | 1011.0 |
| 20260506093031 | 56 | 56 | 4.3 | 13.0 | 0.00 | 0.00 | 0.00 | 92 | 1011.0 |
| 20260506092531 | 56 | 74 | 3.5 | 13.0 | 0.00 | 0.00 | 0.00 | 92 | 1011.0 |
| 20260506092030 | 56 | 42 | 5.2 | 13.0 | 0.00 | 0.00 | 0.00 | 92 | 1011.0 |
| 20260506091530 | 56 | 61 | 5.2 | 13.0 | 0.00 | 0.00 | 0.00 | 92 | 1011.0 |
| 20260506091030 | 56 | 95 | 7.0 | 13.0 | 0.00 | 0.00 | 0.00 | 92 | 1011.1 |
| 20260506090528 | 56 | 55 | 6.1 | 13.0 | 0.00 | 0.00 | 0.00 | 91 | 1011.1 |
| 20260506090029 | 56 | 69 | 6.1 | 13.0 | 0.00 | 0.00 | 0.00 | 91 | 1011.1 |
| 20260506085529 | 56 | 64 | 6.1 | 12.2 | 0.00 | 0.00 | 0.00 | 91 | 1011.2 |
| 20260506085028 | 56 | 86 | 4.3 | 9.6 | 0.00 | 0.00 | 0.00 | 91 | 1011.2 |
| 20260506084528 | 56 | 44 | 5.2 | 13.0 | 0.00 | 0.00 | 0.00 | 91 | 1011.2 |
| 20260506084027 | 56 | 63 | 5.2 | 14.8 | 0.00 | 0.00 | 0.00 | 91 | 1011.1 |
| 20260506083527 | 56 | 69 | 6.1 | 14.8 | 0.00 | 0.00 | 0.00 | 91 | 1011.2 |
| 20260506083027 | 56 | 100 | 4.3 | 12.2 | 0.00 | 0.00 | 0.00 | 90 | 1011.2 |
| 20260506082527 | 56 | 65 | 4.3 | 11.3 | 0.00 | 0.00 | 0.00 | 90 | 1011.1 |
| 20260506082025 | 57 | 55 | 6.1 | 13.0 | 0.00 | 0.00 | 0.00 | 90 | 1011.1 |
| 20260506081531 | 57 | 95 | 4.3 | 13.9 | 0.00 | 0.00 | 0.00 | 90 | 1011.1 |
| 20260506081028 | 57 | 63 | 7.8 | 13.9 | 0.00 | 0.00 | 0.00 | 90 | 1011.3 |
| 20260506080525 | 57 | 90 | 7.0 | 13.9 | 0.00 | 0.00 | 0.00 | 90 | 1011.2 |
| 20260506073522 | 57 | 76 | 7.0 | 16.5 | 0.00 | 0.00 | 0.00 | 89 | 1011.3 |
| 20260506073020 | 57 | 105 | 5.2 | 13.9 | 0.00 | 0.00 | 0.00 | 89 | 1011.3 |
| 20260506072524 | 57 | 52 | 6.1 | 14.8 | 0.00 | 0.00 | 0.00 | 89 | 1011.2 |
| 20260506072018 | 57 | 95 | 6.1 | 18.2 | 0.00 | 0.00 | 0.00 | 89 | 1011.4 |
| 20260506071518 | 57 | 85 | 8.7 | 18.2 | 0.00 | 0.00 | 0.00 | 88 | 1011.3 |
| 20260506071017 | 57 | 95 | 5.2 | 16.5 | 0.00 | 0.00 | 0.00 | 88 | 1011.3 |
| 20260506070516 | 57 | 63 | 6.1 | 19.1 | 0.00 | 0.00 | 0.00 | 88 | 1011.2 |
| 20260506062511 | 58 | 100 | 7.0 | 14.8 | 0.00 | 0.00 | 0.00 | 87 | 1011.2 |
| 20260506062012 | 58 | 57 | 6.1 | 13.9 | 0.00 | 0.00 | 0.00 | 86 | 1011.2 |
| 20260506061511 | 58 | 75 | 7.0 | 15.6 | 0.00 | 0.00 | 0.00 | 86 | 1011.1 |
| 20260506061014 | 58 | 84 | 7.8 | 18.2 | 0.00 | 0.00 | 0.00 | 86 | 1011.2 |
| 20260506060509 | 58 | 57 | 9.6 | 18.2 | 0.00 | 0.00 | 0.00 | 86 | 1011.2 |
| 20260506051059 | 59 | 105 | 6.1 | 19.1 | 0.00 | 0.00 | 0.00 | 84 | 1011.8 |
| 20260506050557 | 59 | 100 | 8.7 | 19.1 | 0.00 | 0.00 | 0.00 | 84 | 1011.7 |
| 20260506050111 | 59 | 44 | 6.1 | 15.6 | 0.00 | 0.00 | 0.00 | 84 | 1011.8 |
| 20260506045059 | 59 | 78 | 7.0 | 13.9 | 0.00 | 0.00 | 0.00 | 84 | 1011.9 |
| 20260506044557 | 59 | 82 | 5.2 | 16.5 | 0.00 | 0.00 | 0.00 | 83 | 1011.8 |
| 20260506044053 | 59 | 76 | 7.8 | 16.5 | 0.00 | 0.00 | 0.00 | 83 | 1011.9 |
| 20260506043552 | 59 | 62 | 9.6 | 15.6 | 0.00 | 0.00 | 0.00 | 83 | 1011.9 |
| 20260506043056 | 59 | 57 | 7.0 | 15.6 | 0.00 | 0.00 | 0.00 | 83 | 1011.8 |
| 20260506042550 | 59 | 51 | 8.7 | 15.6 | 0.00 | 0.00 | 0.00 | 83 | 1011.8 |
| 20260506042050 | 60 | 40 | 6.1 | 14.8 | 0.00 | 0.00 | 0.00 | 83 | 1011.7 |
| 20260506041548 | 60 | 23 | 9.6 | 18.2 | 0.00 | 0.00 | 0.00 | 82 | 1011.7 |
| 20260506041047 | 60 | 105 | 6.1 | 18.2 | 0.00 | 0.00 | 0.00 | 82 | 1011.8 |
| 20260506040550 | 60 | 88 | 7.0 | 20.0 | 0.00 | 0.00 | 0.00 | 81 | 1011.7 |
| 20260506040046 | 60 | 114 | 9.6 | 20.0 | 0.00 | 0.00 | 0.00 | 81 | 1011.8 |
| 20260506035546 | 60 | 105 | 5.2 | 15.6 | 0.00 | 0.00 | 0.00 | 81 | 1011.8 |
| 20260506035044 | 60 | 32 | 7.8 | 14.8 | 0.00 | 0.00 | 0.00 | 80 | 1011.7 |
| 20260506034543 | 60 | 95 | 7.0 | 19.1 | 0.00 | 0.00 | 0.00 | 80 | 1011.8 |
| 20260506034042 | 60 | 75 | 11.3 | 19.1 | 0.00 | 0.00 | 0.00 | 79 | 1011.8 |
| 20260506033542 | 61 | 85 | 7.0 | 23.5 | 0.00 | 0.00 | 0.00 | 79 | 1011.6 |
| 20260506033041 | 61 | 39 | 10.4 | 23.5 | 0.00 | 0.00 | 0.00 | 79 | 1011.7 |
| 20260506032540 | 61 | 64 | 11.3 | 19.1 | 0.00 | 0.00 | 0.00 | 78 | 1011.7 |
| 20260506032039 | 61 | 86 | 11.3 | 19.1 | 0.00 | 0.00 | 0.00 | 77 | 1011.6 |
| 20260506031540 | 61 | 95 | 10.4 | 21.7 | 0.00 | 0.00 | 0.00 | 77 | 1011.5 |
| 20260506031039 | 61 | 122 | 9.6 | 21.7 | 0.00 | 0.00 | 0.00 | 77 | 1011.5 |
| 20260506030538 | 61 | 111 | 8.7 | 20.0 | 0.00 | 0.00 | 0.00 | 76 | 1011.5 |
| 20260506030037 | 61 | 100 | 10.4 | 19.1 | 0.00 | 0.00 | 0.00 | 76 | 1011.5 |
| 20260506025538 | 61 | 57 | 7.8 | 19.1 | 0.00 | 0.00 | 0.00 | 76 | 1011.5 |
| 20260506025036 | 61 | 73 | 9.6 | 19.1 | 0.00 | 0.00 | 0.00 | 76 | 1011.5 |
| 20260506024539 | 61 | 113 | 8.7 | 17.4 | 0.00 | 0.00 | 0.00 | 76 | 1011.5 |
| 20260506024034 | 61 | 138 | 6.1 | 14.8 | 0.00 | 0.00 | 0.00 | 76 | 1011.5 |
| 20260506023532 | 61 | 176 | 7.0 | 14.8 | 0.00 | 0.00 | 0.00 | 76 | 1011.6 |
| 20260506023033 | 61 | 46 | 7.0 | 18.2 | 0.00 | 0.00 | 0.00 | 76 | 1011.6 |
| 20260506022535 | 61 | 62 | 8.7 | 15.6 | 0.00 | 0.00 | 0.00 | 76 | 1011.5 |
| 20260506022031 | 61 | 79 | 6.1 | 14.8 | 0.00 | 0.00 | 0.00 | 76 | 1011.5 |
| 20260506021531 | 61 | 100 | 7.0 | 14.8 | 0.00 | 0.00 | 0.00 | 77 | 1011.5 |
| 20260506021030 | 60 | 57 | 7.0 | 14.8 | 0.00 | 0.00 | 0.00 | 77 | 1011.5 |
| 20260506020528 | 60 | 109 | 6.1 | 15.6 | 0.00 | 0.00 | 0.00 | 77 | 1011.4 |
| 20260506020129 | 60 | 75 | 8.7 | 15.6 | 0.00 | 0.00 | 0.00 | 77 | 1011.5 |
| 20260506015528 | 60 | 78 | 7.8 | 14.8 | 0.00 | 0.00 | 0.00 | 77 | 1011.4 |
| 20260506015029 | 60 | 95 | 3.5 | 15.6 | 0.00 | 0.00 | 0.00 | 77 | 1011.4 |
| 20260506014527 | 60 | 51 | 7.8 | 15.6 | 0.00 | 0.00 | 0.00 | 77 | 1011.4 |
| 20260506014025 | 60 | 61 | 7.0 | 15.6 | 0.00 | 0.00 | 0.00 | 76 | 1011.3 |
| 20260506013525 | 60 | 15 | 8.7 | 16.5 | 0.00 | 0.00 | 0.00 | 76 | 1011.3 |
| 20260506013029 | 60 | 95 | 7.0 | 18.2 | 0.00 | 0.00 | 0.00 | 76 | 1011.2 |
| 20260506012524 | 60 | 76 | 6.1 | 16.5 | 0.00 | 0.00 | 0.00 | 76 | 1011.0 |
| 20260506012025 | 60 | 109 | 8.7 | 16.5 | 0.00 | 0.00 | 0.00 | 76 | 1011.1 |
| 20260506011554 | 60 | 78 | 7.8 | 15.6 | 0.00 | 0.00 | 0.00 | 75 | 1011.1 |
| 20260506011021 | 61 | 90 | 6.1 | 17.4 | 0.00 | 0.00 | 0.00 | 75 | 1011.1 |
| 20260506010520 | 61 | 80 | 8.7 | 17.4 | 0.00 | 0.00 | 0.00 | 75 | 1011.1 |
| 20260506010020 | 61 | 95 | 5.2 | 17.4 | 0.00 | 0.00 | 0.00 | 75 | 1011.0 |
| 20260506005518 | 61 | 42 | 7.0 | 17.4 | 0.00 | 0.00 | 0.00 | 74 | 1010.9 |
| 20260506005017 | 61 | 84 | 8.7 | 18.2 | 0.00 | 0.00 | 0.00 | 74 | 1010.8 |
| 20260506004515 | 61 | 57 | 6.1 | 18.2 | 0.00 | 0.00 | 0.00 | 75 | 1010.7 |
| 20260506004013 | 61 | 95 | 6.1 | 16.5 | 0.00 | 0.00 | 0.00 | 74 | 1010.5 |
| 20260506003513 | 61 | 58 | 5.2 | 16.5 | 0.00 | 0.00 | 0.00 | 74 | 1010.4 |
| 20260506003016 | 61 | 79 | 4.3 | 13.0 | 0.00 | 0.00 | 0.00 | 74 | 1010.4 |
| 20260506002514 | 61 | 56 | 7.0 | 14.8 | 0.00 | 0.00 | 0.00 | 74 | 1010.3 |
| 20260506002013 | 61 | 90 | 6.1 | 14.8 | 0.00 | 0.00 | 0.00 | 74 | 1010.3 |
| 20260506001510 | 61 | 66 | 7.0 | 16.5 | 0.00 | 0.00 | 0.00 | 74 | 1010.2 |
| 20260506001010 | 61 | 52 | 7.8 | 16.5 | 0.00 | 0.00 | 0.00 | 74 | 1010.0 |
| 20260506000514 | 61 | 75 | 7.0 | 14.8 | 0.00 | 0.00 | 0.00 | 73 | 1009.9 |
| 20260506000007 | 61 | 100 | 8.7 | 18.2 | 0.00 | 0.00 | 0.00 | 73 | 1009.9 |
| 20260505235507 | 62 | 146 | 7.8 | 20.9 | 0.00 | 0.00 | 0.00 | 73 | 1009.9 |
| 20260505235005 | 62 | 63 | 4.3 | 20.9 | 0.00 | 0.00 | 0.00 | 73 | 1009.9 |
| 20260505234506 | 62 | 64 | 6.1 | 20.0 | 0.00 | 0.00 | 0.00 | 72 | 1009.9 |
| 20260505234103 | 63 | 95 | 8.7 | 20.0 | 0.00 | 0.00 | 0.00 | 72 | 1009.9 |
| 20260505233601 | 63 | 184 | 6.1 | 20.9 | 0.00 | 0.00 | 0.00 | 72 | 1009.7 |
| 20260505233103 | 63 | 90 | 7.8 | 20.9 | 0.00 | 0.00 | 0.00 | 71 | 1009.4 |
| 20260505232600 | 63 | 80 | 9.6 | 18.2 | 0.00 | 0.00 | 0.00 | 71 | 1009.3 |
| 20260505232058 | 64 | 71 | 7.8 | 19.1 | 0.00 | 0.00 | 0.00 | 70 | 1009.4 |
| 20260505231612 | 64 | 62 | 7.0 | 19.1 | 0.00 | 0.00 | 0.00 | 70 | 1009.4 |
| 20260505231056 | 64 | 37 | 8.7 | 16.5 | 0.00 | 0.00 | 0.00 | 69 | 1009.3 |
| 20260505230554 | 65 | 71 | 7.0 | 19.1 | 0.00 | 0.00 | 0.00 | 69 | 1009.1 |
| 20260505230105 | 65 | 95 | 7.0 | 19.1 | 0.00 | 0.00 | 0.00 | 68 | 1008.8 |
| 20260505225556 | 65 | 136 | 9.6 | 17.4 | 0.00 | 0.00 | 0.00 | 69 | 1008.7 |
| 20260505225052 | 65 | 34 | 10.4 | 18.2 | 0.00 | 0.00 | 0.00 | 68 | 1008.8 |
| 20260505224551 | 65 | 82 | 8.7 | 18.2 | 0.00 | 0.00 | 0.00 | 68 | 1008.8 |
| 20260505224049 | 66 | 59 | 5.2 | 13.9 | 0.00 | 0.00 | 0.00 | 68 | 1009.2 |
| 20260505223553 | 66 | 9 | 7.0 | 20.0 | 0.00 | 0.00 | 0.00 | 67 | 1009.2 |
| 20260505223048 | 66 | 62 | 8.7 | 21.7 | 0.00 | 0.00 | 0.00 | 67 | 1009.1 |
| 20260505222547 | 66 | 49 | 10.4 | 21.7 | 0.00 | 0.00 | 0.00 | 67 | 1009.0 |
| 20260505222046 | 66 | 105 | 5.2 | 12.2 | 0.00 | 0.00 | 0.00 | 67 | 1009.1 |
| 20260505221554 | 67 | 56 | 5.2 | 12.2 | 0.00 | 0.00 | 0.00 | 67 | 1009.1 |
| 20260505221043 | 67 | 67 | 7.0 | 15.6 | 0.00 | 0.00 | 0.00 | 66 | 1009.1 |
| 20260505220542 | 67 | 78 | 8.7 | 15.6 | 0.00 | 0.00 | 0.00 | 65 | 1009.0 |
| 20260505220044 | 68 | 59 | 3.5 | 13.9 | 0.00 | 0.00 | 0.00 | 67 | 1008.9 |
| 20260505215540 | 68 | 126 | 6.1 | 14.8 | 0.00 | 0.00 | 0.00 | 66 | 1009.0 |
| 20260505215039 | 68 | 68 | 5.2 | 14.8 | 0.00 | 0.00 | 0.00 | 65 | 1008.9 |
| 20260505214538 | 68 | 109 | 6.1 | 17.4 | 0.00 | 0.00 | 0.00 | 64 | 1008.9 |
| 20260505214040 | 68 | 71 | 5.2 | 16.5 | 0.00 | 0.00 | 0.00 | 65 | 1008.8 |
| 20260505213535 | 68 | 95 | 6.1 | 14.8 | 0.00 | 0.00 | 0.00 | 64 | 1008.8 |
| 20260505213037 | 69 | 60 | 7.8 | 19.1 | 0.00 | 0.00 | 0.00 | 63 | 1008.9 |
| 20260505212532 | 70 | 51 | 7.0 | 19.1 | 0.00 | 0.00 | 0.00 | 62 | 1008.9 |